This is the latest recevied weather packets stored in our database for station/object DM3DP. If no packets are shown the sender has not sent any weather packets the latest 10 day(s).
| Time | Temp. | Humidity | Pressure | Rain* | Wind** | Luminosity | Snow |
|---|---|---|---|---|---|---|---|
| 1777302764 | 21.67° C | 37% | 1018.2 hPa | 0 mm | - | 746 W/m² | - |
| 1777302434 | 21.67° C | 37% | 1018.3 hPa | 0 mm | - | 504 W/m² | - |
| 1777302103 | 21.67° C | 37% | 1018.4 hPa | 0 mm | - | 496 W/m² | - |
| 1777301773 | 21.11° C | 36% | 1018.5 hPa | 0 mm | - | 488 W/m² | - |
| 1777301443 | 21.11° C | 36% | 1018.6 hPa | 0 mm | - | 459 W/m² | - |
| 1777301114 | 21.67° C | 35% | 1018.7 hPa | 0 mm | - | 403 W/m² | - |
| 1777300783 | 21.67° C | 35% | 1018.8 hPa | 0 mm | - | 569 W/m² | - |
| 1777300454 | 21.67° C | 34% | 1018.9 hPa | 0 mm | - | 611 W/m² | - |
| 1777300124 | 21.11° C | 35% | 1018.9 hPa | 0 mm | - | 674 W/m² | - |
| 1777299794 | 21.67° C | 36% | 1019 hPa | 0 mm | - | 642 W/m² | - |
| 1777299463 | 21.67° C | 36% | 1019 hPa | 0 mm | - | 833 W/m² | - |
| 1777299134 | 21.67° C | 36% | 1019 hPa | 0 mm | - | 583 W/m² | - |
| 1777298804 | 21.67° C | 38% | 1019 hPa | 0 mm | - | 598 W/m² | - |
| 1777298474 | 21.67° C | 38% | 1019.1 hPa | 0 mm | - | 630 W/m² | - |
| 1777298143 | 21.11° C | 36% | 1019.1 hPa | 0 mm | - | 719 W/m² | - |
| 1777297814 | 21.11° C | 37% | 1019.4 hPa | 0 mm | - | 723 W/m² | - |
| 1777297483 | 21.11° C | 37% | 1019.4 hPa | 0 mm | - | 719 W/m² | - |
| 1777297153 | 20.56° C | 36% | 1019.5 hPa | 0 mm | - | 544 W/m² | - |
| 1777296824 | 20.56° C | 38% | 1019.5 hPa | 0 mm | - | 578 W/m² | - |
| 1777296494 | 20.56° C | 38% | 1019.5 hPa | 0 mm | - | 721 W/m² | - |
| 1777296163 | 20° C | 37% | 1019.6 hPa | 0 mm | - | 551 W/m² | - |
| 1777295834 | 20° C | 36% | 1019.6 hPa | 0 mm | - | 517 W/m² | - |
| 1777295503 | 20° C | 36% | 1019.7 hPa | 0 mm | - | 557 W/m² | - |
| 1777295174 | 19.44° C | 36% | 1019.7 hPa | 0 mm | - | 517 W/m² | - |
| 1777294843 | 20° C | 35% | 1019.8 hPa | 0 mm | - | 412 W/m² | - |
* Rain latest hour (hover to see other rain measurements)
** Current wind speed in m/s (hover to see current wind gust speed)